Location: Newark
(44.6028°N, 124.0883°W)
Time: 13:33:08
(UTC+00:00)

Vanguard 1 - Pass Details

Date: 24 October 2019
Orbit: 652 x 3831 km, 34.2° (Epoch: 11 November)

Event Time Altitude Azimuth Distance (km) Brightness Sun altitude
Rises 01:53:53 0° 224° (SW) 3,463 13.9 -6.9°
Reaches altitude 10° 01:56:15 10° 213° (SSW) 2,759 13.0 -7.3°
Maximum altitude 02:02:05 32° 152° (SSE) 2,172 11.7 -8.4°
Enters shadow 02:11:29 10° 96° (E) 4,531 12.8 -10.0°
Drops below altitude 10° 02:11:33 10° 96° (E) 4,554 - -10.0°
Sets 02:16:45 0° 88° (E) 6,134 - -11.0°
